This is the latest recevied weather packets stored in our database for station/object KE6LRO. If no packets are shown the sender has not sent any weather packets the latest 10 day(s).
| Time | Temp. | Humidity | Pressure | Rain* | Wind** | Luminosity | Snow |
|---|---|---|---|---|---|---|---|
| 1778024904 | 16.11° C | 29% | 1018.3 hPa | 0 mm | - | 309 W/m² | - |
| 1778024602 | 16.11° C | 29% | 1018.3 hPa | 0 mm | - | 321 W/m² | - |
| 1778024299 | 16.11° C | 29% | 1018.3 hPa | 0 mm | - | 334 W/m² | - |
| 1778023997 | 15.56° C | 31% | 1018.5 hPa | 0 mm | - | 347 W/m² | - |
| 1778023694 | 16.11° C | 30% | 1018.2 hPa | 0 mm | - | 362 W/m² | - |
| 1778023391 | 15° C | 30% | 1018.2 hPa | 0 mm | - | 375 W/m² | - |
| 1778023088 | 15.56° C | 29% | 1018.3 hPa | 0 mm | - | 389 W/m² | - |
| 1778022786 | 16.67° C | 29% | 1018.2 hPa | 0 mm | - | 50 W/m² | - |
| 1778022484 | 16.67° C | 30% | 1018.3 hPa | 0 mm | - | 50 W/m² | - |
| 1778022181 | 15.56° C | 29% | 1018.3 hPa | 0 mm | - | 427 W/m² | - |
| 1778021877 | 16.67° C | 29% | 1018.2 hPa | 0 mm | - | 440 W/m² | - |
| 1778021575 | 16.11° C | 29% | 1018.3 hPa | 0 mm | - | 345 W/m² | - |
| 1778021269 | 16.11° C | 30% | 1018.2 hPa | 0 mm | - | 465 W/m² | - |
| 1778020967 | 16.11° C | 29% | 1018.5 hPa | 0 mm | - | 477 W/m² | - |
| 1778020665 | 16.11° C | 30% | 1018.3 hPa | 0 mm | - | 492 W/m² | - |
| 1778020361 | 16.11° C | 31% | 1018.5 hPa | 0 mm | - | 101 W/m² | - |
| 1778020057 | 15.56° C | 31% | 1018.3 hPa | 0 mm | - | 351 W/m² | - |
| 1778019753 | 15.56° C | 31% | 1018.4 hPa | 0 mm | - | 515 W/m² | - |
| 1778019451 | 16.11° C | 30% | 1018.4 hPa | 0 mm | - | 544 W/m² | - |
| 1778019147 | 15.56° C | 30% | 1018.5 hPa | 0 mm | - | 558 W/m² | - |
| 1778018844 | 15.56° C | 31% | 1018.5 hPa | 0 mm | - | 570 W/m² | - |
| 1778018542 | 15.56° C | 31% | 1018.5 hPa | 0 mm | - | 586 W/m² | - |
| 1778018240 | 16.67° C | 32% | 1018.5 hPa | 0 mm | - | 612 W/m² | - |
| 1778017937 | 15.56° C | 32% | 1018.5 hPa | 0 mm | - | 653 W/m² | - |
| 1778017635 | 16.67° C | 30% | 1018.5 hPa | 0 mm | - | 642 W/m² | - |
* Rain latest hour (hover to see other rain measurements)
** Current wind speed in m/s (hover to see current wind gust speed)